DECSS EDAZ-EDAV

Flight info

Callsign DECSS
Flight time N/A
Altitude 2000
Route VFR
Aircraft C210/L-VGD/A

Departure

Time 2026-04-30 15:00
Airport Schönhagen Airfield (EDAZ)

Arrival

Time N/A
Airport Eberswalde-Finow Airfield (EDAV)
Time Latitude Longitude Altitude Speed Heading
2026-04-30 14:55 52.20447 13.15184 137 ft 0 kts 166°
2026-04-30 14:58 52.20396 13.15098 135 ft 12 kts 246°
2026-04-30 14:58 52.20381 13.14968 135 ft 8 kts 219°
2026-04-30 14:58 52.20254 13.14982 126 ft 5 kts 154°
2026-04-30 14:59 52.20290 13.15315 136 ft 35 kts 78°
2026-04-30 15:00 52.20446 13.17625 483 ft 78 kts 72°
2026-04-30 15:00 52.20355 13.19537 920 ft 107 kts 135°
2026-04-30 15:01 52.19042 13.20500 1638 ft 108 kts 163°
2026-04-30 15:01 52.18633 13.20997 1712 ft 118 kts 117°
2026-04-30 15:01 52.18718 13.24051 2015 ft 131 kts 82°
2026-04-30 15:02 52.18800 13.25637 2011 ft 147 kts 83°
2026-04-30 15:02 52.18871 13.27331 2007 ft 152 kts 83°
2026-04-30 15:03 52.19073 13.32608 2007 ft 158 kts 84°
2026-04-30 15:03 52.19276 13.35561 1997 ft 155 kts 70°
2026-04-30 15:04 52.19984 13.38948 1997 ft 159 kts 70°
2026-04-30 15:04 52.21031 13.44054 1996 ft 158 kts 69°
2026-04-30 15:05 52.22080 13.49173 1990 ft 158 kts 69°
2026-04-30 15:06 52.22773 13.52565 1994 ft 159 kts 69°
2026-04-30 15:06 52.23466 13.55968 1990 ft 157 kts 69°
2026-04-30 15:07 52.24149 13.59319 1986 ft 154 kts 69°
2026-04-30 15:07 52.24826 13.62651 1987 ft 155 kts 68°
2026-04-30 15:08 52.25509 13.66016 1987 ft 156 kts 68°
2026-04-30 15:08 52.26537 13.71092 1993 ft 158 kts 69°
2026-04-30 15:09 52.27377 13.74403 1990 ft 158 kts 56°
2026-04-30 15:09 52.28498 13.77504 1993 ft 158 kts 58°
2026-04-30 15:10 52.29590 13.80560 1986 ft 154 kts 57°
2026-04-30 15:11 52.31747 13.86600 1981 ft 154 kts 57°
2026-04-30 15:11 52.32829 13.89634 1988 ft 155 kts 56°
2026-04-30 15:12 52.34468 13.94240 1990 ft 157 kts 57°
2026-04-30 15:13 52.35549 13.97284 1985 ft 154 kts 57°
2026-04-30 15:14 52.37708 14.03372 1980 ft 151 kts 56°
2026-04-30 15:14 52.39235 14.07683 1979 ft 144 kts 56°
2026-04-30 15:16 52.42957 14.10758 1988 ft 149 kts 323°
2026-04-30 15:17 52.46310 14.06476 1992 ft 154 kts 323°
2026-04-30 15:18 52.50512 14.01116 1989 ft 154 kts 324°
2026-04-30 15:19 52.53183 13.97706 1572 ft 167 kts 323°